ELECTRON KICK STAGE R/B, 63207

Orbit data source: Space-Track

ELECTRON KICK STAGE R/B, 63207 is space debris in LEO originally from a launch on Sat, 15 Mar 2025 UTC launched from the Rocket Lab Launch Complex (RLLC). Debris objects in space refer to the collection of defunct objects orbiting the Earth. Examples of debris include non-operational satellites, rocket bodies, and fragments generated from explosions, collisions, or faulty payload assembly.

Loading next visibility...
Identifier
63207, 2025-050C
Orbit
LEO
Country
Flag of USUS
Related business
Manufacturer
Rocket Lab
Mission
Spacecraft
Bus & Motor
KICK STAGE, CURIE
Mass
~42 kg wet, ~42 kg dry
Launch date (UTC)
2025-03-15 (11 months ago)
Launch vehicle
Unknown
Launch site
Rocket Lab Launch Complex (RLLC)
Object type
Payload
Rocket body
Debris
Shape & HBR
Trunc Cone, 0.8 m
Radar Cross Section
0.760 m², Large (>1 m²)

Expand to show TLE details & history
Last TLE update: 14 hours ago

TLE from 14 hours ago
0 ELECTRON KICK STAGE R/B
1 63207U 25050C   26036.22201791  .00008483  00000-0  64805-3 0  9990
2 63207  42.0176 108.8425 0004787 299.4394  60.5954 15.02102870 49136
Epoch: 2026-02-05T05:19Z
TLE epoch observation values (Epoch: 2026-02-05T05:19:42.347Z)
Latitude
-0.00005°
Longitude
-106.46135°
Altitude
558.454 km
Speed
7.585 km/s
True Right ascension
07h 15m 22s
True Declination
0° 00' 00"
Sunlit
Object was in full shadow at epoch
Visualization orbit readout
Latitude
Unknown
Longitude
Unknown
Altitude
Unknown
Speed
Unknown
Apparent Right ascension
Unknown
Apparent Declination
Unknown
Sunlit
N/A
Visualization observer readout
Local Sidereal Time
21:31:38
Azimuth
Unknown
Elevation
Unknown
Doppler factor
Unknown
Orbital elements
Apogee altitude
565.822 km
Perigee altitude
559.177 km
Semi-major axis
6,940.636 km
Eccentricity
0.00048
Inclination
42.0176°
RAAN
108.8425°
Arg. of periapsis
299.4394°
True anomaly
60.6432°
Mean anomaly
60.5954°
Eccentric anomaly
60.6193°
Mean motion
3.75357 °/min
Orbital period
95.91 mins
BSTAR
0.00064805
Loading maneuver chart data...
Computing Atmospheric mass density...
Loading historical data...
Loading historical data...
Loading historical data...
Loading historical data...
Loading historical data...
Loading historical data...
Loading historical data...
Other satellites on launch #50 in the year 2025 (2025-03-15 UTC)

Documentation

Showing up to 5 results
|